Fargo, ND

7:24 AM CDT on April 19, 2018 (GMT -0500)
Hector International

Weather History for KFAR - July, 2013

Change the Weather History Date:

Sunday, July 14, 2013

  Actual Average Record
Temperature  
Mean Temperature 73 °F 71 °F  
Max Temperature 77 °F 83 °F 99 °F (1936)
Min Temperature 69 °F 60 °F 42 °F (1967)
Degree Days  
Heating Degree Days 0 0  
Month to date heating degree days 0 12  
Since 1 June heating degree days 62 85  
Since 1 July heating degree days 0 12  
Cooling Degree Days 8 7  
Month to date cooling degree days 148 88  
Year to date cooling degree days 323 226  
Since 1 June cooling degree days 294 195  
Growing Degree Days 23 (Base 50)    
Moisture  
Dew Point 66 °F    
Average Humidity 79    
Maximum Humidity 90    
Minimum Humidity 68    
Precipitation  
Precipitation T in 0.09 in 2.85 in (1969)
Month to date precipitation 0.26 1.45  
Year to date precipitation 20.89 12.16  
Snow  
Snow 0.00 in 0.00 in 0.00 in ()
Month to date snowfall 0.0 0.0  
Since 1 June snowfall 0.0 0.0  
Since 1 July snowfall 0.0 0.0  
Snow Depth 0.00 in    
Sea Level Pressure  
Sea Level Pressure 30.08 in    
Wind  
Wind Speed 5 mph (East)    
Max Wind Speed 21 mph    
Max Gust Speed 32 mph    
Visibility 10 miles    
Events Rain    
T = Trace of Precipitation, MM = Missing Value Source: NWS Daily Summary

Daily Weather History Graph

Daily Weather History Graph

Search for Another Location

Airport or City:

Astronomy

Jul. 14, 2013 Rise Set
Actual Time 5:47 AM CDT 9:18 PM CDT
Civil Twilight 5:08 AM CDT 9:56 PM CDT
Nautical Twilight 4:18 AM CDT 10:47 PM CDT
Astronomical Twilight 3:10 AM CDT 11:53 PM CDT
Moon 12:33 PM CDT (7/14) No Moon Set
Length of Visible Light 16h 47m
Length of Day
15h 31m
Waxing Crescent, 35% of the Moon is Illuminated
Jul 14
Waxing Crescent
Jul 15
First Quarter
Jul 22
Full
Jul 29
Last Quarter
Aug 6
New

Hourly Weather History & Observations

Time (CDT) Temp. Dew Point Humidity Pressure Visibility Wind Dir Wind Speed Gust Speed Precip Events Conditions
12:53 AM 75.0 °F 68.0 °F 79% 29.98 in 10.0 mi SSE 4.6 mph - N/A   Mostly Cloudy
1:53 AM 73.9 °F 66.9 °F 79% 29.97 in 10.0 mi SSE 5.8 mph - N/A   Scattered Clouds
2:53 AM 73.0 °F 66.9 °F 81% 29.97 in 10.0 mi ESE 3.5 mph - N/A   Scattered Clouds
3:53 AM 72.0 °F 66.9 °F 84% 29.97 in 9.0 mi Calm Calm - N/A   Clear
4:53 AM 72.0 °F 66.9 °F 84% 29.96 in 10.0 mi SE 3.5 mph - N/A   Clear
5:53 AM 70.0 °F 66.9 °F 90% 29.98 in 6.0 mi ENE 4.6 mph - N/A   Clear
6:53 AM 71.1 °F 66.9 °F 87% 29.99 in 6.0 mi Calm Calm - N/A   Clear
7:49 AM 73.4 °F 66.2 °F 78% 30.03 in 10.0 mi Calm Calm - N/A   Mostly Cloudy
7:53 AM 73.0 °F 66.9 °F 81% 30.02 in 10.0 mi SSE 4.6 mph - N/A   Mostly Cloudy
8:18 AM 73.4 °F 66.2 °F 78% 30.04 in 10.0 mi Calm Calm - N/A   Scattered Clouds
8:53 AM 73.9 °F 66.0 °F 76% 30.04 in 10.0 mi ESE 4.6 mph - 0.00 in   Overcast
9:53 AM 73.0 °F 66.0 °F 79% 30.09 in 10.0 mi SSE 6.9 mph - 0.00 in Rain Light Rain
10:29 AM 69.8 °F 64.4 °F 83% 30.10 in 10.0 mi North 12.7 mph 32.2 mph 0.00 in   Overcast
10:53 AM 69.1 °F 64.0 °F 84% 30.09 in 10.0 mi North 9.2 mph - 0.00 in   Overcast
11:53 AM 70.0 °F 62.1 °F 76% 30.09 in 10.0 mi NNE 10.4 mph - N/A   Overcast
12:53 PM 72.0 °F 62.1 °F 71% 30.08 in 10.0 mi North 15.0 mph 24.2 mph N/A   Overcast
1:37 PM 71.6 °F 62.6 °F 73% 30.11 in 10.0 mi NNE 9.2 mph - N/A   Overcast
1:53 PM 73.9 °F 63.0 °F 68% 30.10 in 10.0 mi NE 10.4 mph - N/A   Overcast
2:53 PM 73.0 °F 63.0 °F 71% 30.12 in 10.0 mi ENE 5.8 mph - N/A   Overcast
3:53 PM 72.0 °F 64.9 °F 78% 30.13 in 8.0 mi East 3.5 mph - 0.00 in Rain Light Rain
4:37 PM 75.2 °F 66.2 °F 73% 30.12 in 10.0 mi ENE 4.6 mph - 0.00 in   Overcast
4:53 PM 75.9 °F 66.0 °F 71% 30.12 in 10.0 mi NE 5.8 mph - 0.00 in   Overcast
5:14 PM 75.2 °F 66.2 °F 73% 30.13 in 10.0 mi NE 5.8 mph - N/A   Overcast
5:53 PM 75.0 °F 66.0 °F 73% 30.13 in 10.0 mi ENE 3.5 mph - N/A   Overcast
6:53 PM 73.9 °F 68.0 °F 82% 30.13 in 10.0 mi ESE 4.6 mph - N/A   Overcast
7:53 PM 73.9 °F 68.0 °F 82% 30.14 in 10.0 mi ESE 3.5 mph - N/A   Overcast
8:53 PM 73.0 °F 69.1 °F 87% 30.15 in 10.0 mi ESE 3.5 mph - N/A   Overcast
9:09 PM 73.4 °F 69.8 °F 88% 30.16 in 8.0 mi Calm Calm - N/A   Overcast
9:53 PM 73.0 °F 68.0 °F 84% 30.17 in 10.0 mi ESE 4.6 mph - 0.00 in   Overcast
10:53 PM 73.0 °F 66.9 °F 81% 30.17 in 10.0 mi Calm Calm - N/A   Overcast
11:53 PM 73.0 °F 66.9 °F 81% 30.17 in 10.0 mi East 3.5 mph - N/A   Overcast